Find Starlink 3241

NORAD ID: 49745 Int'l Des: 2021-115 Owner: SPXS Country: US Constellation: starlink operational
LEOCIRCULAR

Live Position

Loading 3D Globe...

About Starlink 3241

Description loading...

Upcoming Passes

Passes for default location (London). Set your location on the main map for personalized predictions.

Altitude History

Loading altitude history...

Two-Line Element Set

1 49745U 21115X 26133.27487562 -.00000085 00000-0 12716-4 0 9990
2 49745 53.2176 219.1561 0001193 78.4123 281.7003 15.08833707245283
Epoch: May 13, 2026 • Age: 10 hours

Current Status

Altitude 539.6 km
Velocity 7.60 km/s
Sub-Earth Point 17.58°N, 116.05°E
Launch Date Dec 2, 2021
Age 4.4 years
Type internet

Technical Details

Classification Payload
Mass 290.00 kg
Dry Mass 270.00 kg
Total Mass 290.00 kg
Length 0.20 m
Diameter 2.80 m
Span 9.00 m
Shape Box + pan
Manufacturer SPXS
Bus Type Starlink
Phase Status In Orbit
Owner/State SPXS/US

Most Searched